Flag for Cote d'Ivoire (Ivory Coast) Weather past 2 weeks in Abidjan, Cote d'Ivoire (Ivory Coast)

Now
82 °F

Passing clouds.


Feels Like: 92 °F
Forecast: N/A
Wind: 5 mph from South

Location: Abidjan Airport

Current Time: Apr 1, 2015 at 10:53:38 PM

Latest Report: Apr 1, 2015 at 10:30 PM


Visibility: N/A

Pressure: 29.92 "Hg

Humidity: 89%

Dew point: 79 °F

Location of AbidjanLocation

Historic Weather in Abidjan — Graph

°F

Abidjan temperature yesterday

Maximum temperature yesterday: 90 °F (at 1:00 PM)
Minimum temperature yesterday: 75 °F (at 3:30 AM)
Average temperature yesterday: 82 °F

Past Weeks' High & Low Weather Summary

 TemperatureHumidityPressure
High91 °F (Mar 23, 1:00 PM)100% (Mar 18, 6:30 AM)29.98 "Hg (Mar 18, 6:30 AM)
Low72 °F (Mar 27, 2:00 AM)59% (Mar 23, 1:00 PM)29.68 "Hg (Mar 20, 4:30 PM)
Average83 °F84%29.83 "Hg
* Reported Mar 17 10:00 PM — Apr 1 10:00 PM, Abidjan, Weather by CustomWeather, © 2015

Note: Actual official high and low records may vary slightly from our data, if they occured in-between our weather recording intervals... More about our weather records

Advertising

Abidjan weather history for previous 24 hours

 ConditionsComfort  
Time TempWeatherWind HumidityBarometerVisibility
10:00 PM
Wed, Apr 1
82 °FPassing clouds.6 mph89%29.89 "HgN/A
9:30 PM82 °FPassing clouds.6 mph89%29.89 "HgN/A
9:00 PM82 °FPassing clouds.6 mph84%29.89 "HgN/A
8:30 PM82 °FPassing clouds.6 mph89%29.89 "HgN/A
8:00 PM82 °FPassing clouds.6 mph84%29.86 "HgN/A
7:30 PM82 °FPassing clouds.5 mph84%29.86 "HgN/A
7:00 PM82 °FPassing clouds.7 mph84%29.83 "HgN/A
6:30 PM82 °FPassing clouds.6 mph84%29.83 "HgN/A
6:00 PM84 °FScattered clouds.9 mph79%29.83 "HgN/A
5:30 PM84 °FPassing clouds.9 mph79%29.83 "HgN/A
5:00 PM86 °FPassing clouds.10 mph75%29.80 "HgN/A
4:30 PM86 °FPassing clouds.10 mph79%29.80 "HgN/A
4:00 PM86 °FPassing clouds.10 mph79%29.80 "HgN/A
3:30 PM86 °FPassing clouds.12 mph75%29.80 "HgN/A
3:00 PM88 °FScattered clouds.10 mph75%29.80 "HgN/A
2:30 PM88 °FScattered clouds.10 mph75%29.83 "HgN/A
2:00 PM88 °FScattered clouds.12 mph70%29.83 "HgN/A
1:30 PM88 °FScattered clouds.10 mph70%29.86 "HgN/A
1:00 PM88 °FScattered clouds.10 mph70%29.86 "HgN/A
12:30 PM88 °FScattered clouds.12 mph70%29.89 "HgN/A
12:00 PM88 °FScattered clouds.9 mph70%29.89 "HgN/A
11:30 AM88 °FScattered clouds.10 mph66%29.89 "HgN/A
11:00 AM88 °FScattered clouds.8 mph70%29.92 "HgN/A
10:30 AM86 °FScattered clouds.7 mph79%29.92 "HgN/A
10:00 AM86 °FScattered clouds.7 mph79%29.92 "HgN/A
9:30 AM84 °FScattered clouds.6 mph79%29.92 "HgN/A
9:00 AM84 °FScattered clouds.6 mph79%29.92 "HgN/A
8:30 AM81 °FScattered clouds.7 mph89%29.89 "HgN/A
8:00 AM79 °FScattered clouds.5 mph94%29.89 "HgN/A
7:30 AM79 °FScattered clouds.3 mph94%29.89 "HgN/A
7:00 AM79 °FScattered clouds.5 mph94%29.86 "Hg5 mi
6:30 AM77 °FScattered clouds.3 mph100%29.86 "Hg4 mi
6:00 AM79 °FPassing clouds.3 mph100%29.83 "Hg5 mi
5:30 AM79 °FPassing clouds.3 mph100%29.83 "Hg5 mi
5:00 AM79 °FPassing clouds.1 mph94%29.83 "Hg5 mi
4:30 AM79 °FPassing clouds.1 mph100%29.83 "Hg6 mi
4:00 AM79 °FPassing clouds.3 mph100%29.83 "HgN/A
3:30 AM79 °FThunderstorms. Passing clouds.5 mph100%29.83 "HgN/A
3:00 AM81 °FThunderstorms. Passing clouds.2 mph94%29.83 "HgN/A
2:30 AM81 °FThunderstorms. Passing clouds.5 mph94%29.83 "HgN/A
2:00 AM81 °FThunderstorms. Passing clouds.5 mph94%29.83 "HgN/A
1:30 AM81 °FPassing clouds.3 mph94%29.86 "HgN/A
1:00 AM82 °FPassing clouds.5 mph89%29.86 "HgN/A
12:30 AM82 °FPassing clouds.6 mph89%29.86 "HgN/A
12:00 AM82 °FPassing clouds.5 mph89%29.89 "HgN/A
11:30 PM
Tue, Mar 31
82 °FPassing clouds.7 mph89%29.89 "HgN/A
11:00 PM82 °FPassing clouds.6 mph89%29.89 "HgN/A
10:30 PM79 °FPassing clouds.2 mph89%29.89 "HgN/A
10:00 PM79 °FPassing clouds.3 mph89%29.89 "HgN/A
Weather by CustomWeather, © 2015

See weather overviewHow to use our weather pages